www.pogodaiklimat.ru

Погода и климат >> Архив погоды >> Россия >> Якутия >> Екюччю


ПОГОДА в Екюччю

  • Прогноз погоды в Екюччю
  • Монитор погоды в Екюччю

АРХИВ ПОГОДЫ в Екюччю

Время (UTC), дата Ветер
(напр.,м/с)
 
Видим.   Явления Облачность Т
(С)
Тd
(С)
f
(%)
Тe
(С)
Тes
(С)
Комфортность P
(гПа)
Po
(гПа)
Тmin
(С)
Tmax
(С)
R
(мм)
R24
(мм)
S
(см)
09 14.04 Ю 2 50 км ?/? -5.5 -16.2 43 -9 -9 1007.0 981.7 -4.7
12 14.04 штиль 0 50 км 3/0
[Ci fib]
-15.8 -21.8 60 -16 -16 1009.0 982.5
15 14.04 штиль 0 50 км ясно -18.0 -23.0 65 -18 -18 983.3
18 14.04 штиль 0 50 км ясно -21.9 -26.0 69 -22 -22 1010.4 983.2
21 14.04 штиль 0 50 км 3/0
[Cs]
-28.0 -30.5 79 -28 -27 1010.0 982.3 -28.0 12
00 15.04 штиль 0 50 км ясно -16.1 -20.3 70 -16 -11 1008.1 981.7
03 15.04 штиль 0 50 км 3/0
[Cs]
-4.9 -14.4 47 -5 +4 1005.1 979.8
06 15.04 ЮЗ 1 50 км 8/0
[Cs]
-1.6 -16.1 32 -3 +2 1003.1 978.2
09 15.04 С 2 50 км 4/0
[Ci fib]
-2.3 -17.1 31 -5 -4 1003.3 978.3 -1.4
12 15.04 СЗ 2 50 км 3/0
[Ci fib]
-10.3 -21.3 40 -15 -15 1005.2 979.3
15 15.04 штиль 0 50 км 1/0
[Ci fib]
-20.0 -24.9 65 -20 -20 1006.8 980.0
18 15.04 штиль 0 50 км ясно -24.5 -27.7 75 -25 -25 1008.3 981.0
21 15.04 штиль 0 50 км ясно -26.1 -28.6 79 -26 -25 1009.6 982.1 -26.8 11
00 16.04 Ю 3 50 км ясно -14.3 -20.4 60 -21 -17 1008.4 982.2 -11.5
03 16.04 Ю 3 50 км 3/0
[Ci fib]
-4.9 -15.0 45 -10 -4 1006.8 981.5
06 16.04 ЮВ 2 50 км 8/0
[]
-1.3 -13.5 39 -4 -1 1005.6 980.7
09 16.04 Ю 2 50 км 9/0
[Ci fib]
-2.5 -12.9 45 -6 -5 1005.1 980.1 -0.7
12 16.04 штиль 0 50 км 3/0
[Ci fib]
-12.5 -19.7 55 -13 -13 1008.1 982.1
15 16.04 штиль 0 50 км 4/0
[Ci fib]
-21.3 -26.1 65 -21 -21 1009.6 982.6
18 16.04 штиль 0 50 км 3/0
[Ci fib]
-23.3 -27.3 70 -23 -23 1010.3 983.0
21 16.04 штиль 0 50 км 3/0
[Ci fib]
-20.6 -23.1 80 -21 -20 1010.8 983.8 -23.3 11
00 17.04 штиль 0 50 км 4/0
[Cs]
-12.4 -19.6 55 -12 -7 1009.8 983.7
03 17.04 С 3 50 км 9/0
[Cc]
-3.3 -13.3 46 -8 -3 1007.5 982.4
06 17.04 С 5 50 км 10/0
[As trans Cs]
-1.7 -15.0 35 -7 -6 1007.3 982.3
09 17.04 С 4 50 км 10/0
[As op]
-2.6 -13.1 44 -8 -8 1007.9 982.8 -1.4
12 17.04 С 5 50 км 10/0
[As op]
-5.1 -14.8 46 -12 -12 1009.7 984.3
15 17.04 С 3 50 км 10/0
[As op]
-8.7 -16.5 53 -14 -14 1011.0 985.2
18 17.04 С 1 50 км 10/0
[As op]
-12.3 -18.5 60 -15 -15 1011.9 985.8
21 17.04 штиль 0 50 км 10/0
[Ac As]
-17.3 -22.3 65 -17 -17 1015.2 988.4 -17.8 11
00 18.04 СЗ 2 50 км 10/0
[Ac lent Cs]
-8.8 -16.0 56 -13 -10 1014.7 988.8
03 18.04 СЗ 2 50 км 10/0
[Ac lent Cs]
-8.8 -16.0 56 -13 -8 1014.7 988.8
06 18.04 С 3 50 км 6/0
[Ci fib]
-4.2 -15.6 41 -9 -5 1015.3 989.9
09 18.04 штиль 0 50 км 1/0
[Ci fib]
-3.1 -13.5 44 -3 -2 1016.1 990.8 -2.9
12 18.04 штиль 0 50 км ясно -11.3 -19.7 50 -11 -11 1018.2 992.1
15 18.04 штиль 0 50 км ясно -19.7 -24.6 65 -20 -20 1020.7 993.5
18 18.04 штиль 0 50 км ясно -22.3 -26.4 69 -22 -22 1021.9 994.5
21 18.04 штиль 0 50 км ясно -26.7 -29.2 79 -27 -26 1023.6 995.5 -26.7 11
00 19.04 штиль 0 50 км ясно -11.3 -17.5 60 -11 -5 1021.3 995.0
03 19.04 штиль 0 50 км ясно -2.8 -12.9 46 -3 +7 1019.2 993.7
06 19.04 штиль 0 50 км ясно -0.8 -11.9 43 -1 +6 1016.2 991.1
09 19.04 Ю 3 50 км ясно -1.4 -13.1 41 -5 -5 1016.7 991.6 -0.4
12 19.04 Ю 2 50 км 6/0
[Cs]
-7.8 -17.7 45 -12 -12 1017.1 991.3
15 19.04 штиль 0 50 км 8/0
[Ci fib]
-18.0 -23.0 65 -18 -18 1018.7 991.8
18 19.04 штиль 0 50 км 10/0
[Ci fib]
-23.2 -27.2 70 -23 -23 1020.2 992.7
21 19.04 штиль 0 50 км 5/0
[Ci fib]
-25.3 -27.8 80 -25 -24 1020.7 992.9 -25.9 10
00 20.04 штиль 0 50 км 9/0
[Cs]
-11.2 -16.5 65 -11 -6 1019.3 993.0
03 20.04 Ю 2 50 км 10/0
[Cs]
-5.0 -13.4 52 -9 -3 1018.4 992.7
06 20.04 Ю 1 50 км 10/0
[As trans]
-2.0 -12.0 46 -3 -1 1015.5 990.3
09 20.04 СВ 2 50 км 10/0
[As op]
-1.2 -12.1 43 -4 -4 1014.1 989.0 -0.9
12 20.04 СВ 2 50 км 10/0
[As op]
-2.7 -12.7 46 -6 -6 1013.8 988.5
15 20.04 С 1 50 км 10/0
[As op]
-7.7 -15.5 54 -10 -10 1012.8 987.1
18 20.04 штиль 0 50 км 9/0
[Ac trans]
-12.4 -17.6 65 -12 -12 1012.5 986.4
21 20.04 штиль 0 50 км 10/0
[As op]
-13.8 -16.5 80 -14 -14 1011.4 985.1 -13.8 10
00 21.04 штиль 0 50 км 10/0
[Ac und]
-5.4 -11.9 60 -6 -4 1008.7 983.3
03 21.04 ЮЗ 1 50 км 10/0
[As trans Ci fib]
+0.4 -10.2 45 -1 +4 1006.5 981.8
06 21.04 З 2 50 км 10/0
[As trans Ci fib]
+3.6 -7.4 44 +2 +5 1004.6 980.1

 

Местоположение метеостанции Екюччю (Якутия, Россия): широта 66.77 долгота 131.60 высота над уровнем моря 200 м.

В архиве по умолчанию представлена погода в Екюччю за последнюю неделю. Архивные данные за месяц целиком и за предыдущие месяцы, начиная с января 2011 года, Вы можете получить, выбрав интересующий диапазон дат из раскрывающегося списка и нажав кнопку "Ввод!".


*Определитесь, кто Вы:
робот инопланетянин человек

Внимание! Время в таблицах - всемирное. Для получения местного времени необходимо прибавить поправку, которая равна 10 ч.

Смотрите также архив погоды в соседних городах и на ближайших метеорологических станциях:

Погода в Верхоянске (Якутия, Россия) (118 км)
Погода в Батагай-Алыте (Якутия, Россия) (124 км)
Погода в Батагае (Якутия, Россия) (162 км)
Погода в Себян-Кюеле (Якутия, Россия) (179 км)
Погода в Усть-Чарках (Якутия, Россия) (219 км)
Погода в Иэме (Якутия, Россия) (250 км)
Погода в Сеген-Кюеле (Якутия, Россия) (314 км)
Погода в Жиганске (Якутия, Россия) (364 км)
Погода в Сого-Хае (Якутия, Россия) (366 км)
Погода в Сангаре (Якутия, Россия) (369 км)

Пояснения к столбцам:

Ветер - указаны скорость ветра в м/с - средняя за 10 мин, порывы в срок и между сроками (в фигурных скобках) и направление, откуда дует ветер: С - северный, СВ - северо-восточный, В - восточный, ЮВ - юго-восточный, Ю - южный, ЮЗ - юго-западный, З - западный, СЗ - северо-западный.
Видимость - горизонтальная дальность видимости в метрах или километрах. При видимости от 1 до 10 км при отсутствии осадков обычно наблюдается дымка, при ухудшении видимости до 1 км и менее - туман. В сухую погоду видимость может ухудшаться дымом, пылью или мглою.
Явления - указаны атмосферные явления, наблюдавшиеся в срок или в последний час перед сроком; фигурными скобками обозначены явления, наблюдавшиеся между сроками (за 1-3 часа до срока); квадратными скобками обозначены град или гололедные отложения с указанием их диаметра в мм.
Облачность - указаны через наклонную черту общая и нижняя облачность в баллах и высота нижней границы облаков в метрах; квадратными скобками обозначены формы облаков: Ci - перистые, Cs - перисто-слоистые, Cc - перисто-кучевые, Ac - высококучевые, As - высокослоистые, Sc - слоисто-кучевые, Ns - слоисто-дождевые, Cu - кучевые, Cb - кучево-дождевые. Подробнее классификацию облаков см. в Атласе облаков (PDF).
T - Температура воздуха - температура, измеренная на высоте 2 м над землей.
Td - Температура точки росы - температура, при понижении до которой содержащийся в воздухе водяной пар достигнет насыщения.
f - Относительная влажность воздуха - влажноcть воздуха, измеренная на высоте 2 м над землей.
Te - Эффективная температура - температура, которую ощущает одетый по сезону человек в тени. Характеристика душности погоды. При расчете учитывается влияние влажности воздуха и скорости ветра на теплоощущения человека.
Tes - Эффективная температура на солнце - температура, которую ощущает человек, с поправкой на солнечный нагрев. Характеристика знойности погоды. Зависит от высоты солнца над горизонтом, облачности и скорости ветра. Ночью, в пасмурную погоду, а также при ветре 12 м/с и более поправка равна нулю.
P - Атмосферное давление - приведенное к уровню моря атмосферное давление.
Po - Атмосферное давление - измеренное на уровне метеостанции атмосферное давление.
Tmin - Минимальная температура - минимум температуры воздуха на высоте 2 м над землей.
Tmax - Максимальная температура - максимум температуры воздуха на высоте 2 м над землей.
R - Количество осадков - Количество выпавших осадков за период времени, мм. При наведении курсора мыши на число - период времени, за который выпало указанное количество осадков.
R24 - Количество осадков - Количество выпавших осадков за 24 часа, мм.
S - Снежный покров - Высота снежного покрова, см. При наведении курсора мыши на число - состояние снежного покрова и степень покрытия местности в баллах.